| time (UTC) | temp F | wind direction | speed MPH | gust MPH | rain 1hr in | rain 24hr in | rain mn in | humidity % | barometer mb |
| 20260510185536 | 66 | 359 | 3.0 | 6.0 | 0.00 | 0.00 | 0.00 | 33 | 1022.1 |
| 20260510185034 | 65 | 29 | 1.0 | 5.0 | 0.00 | 0.00 | 0.00 | 32 | 1022.3 |
| 20260510184531 | 65 | 31 | 2.0 | 3.0 | 0.00 | 0.00 | 0.00 | 33 | 1022.1 |
| 20260510184026 | 65 | 69 | 1.0 | 1.0 | 0.00 | 0.00 | 0.00 | 32 | 1022.1 |
| 20260510183522 | 65 | 45 | 1.0 | 2.0 | 0.00 | 0.00 | 0.00 | 32 | 1021.9 |
| 20260510183017 | 65 | 293 | 2.0 | 3.0 | 0.00 | 0.00 | 0.00 | 32 | 1022.3 |
| 20260510182514 | 65 | 114 | 0.0 | 3.0 | 0.00 | 0.00 | 0.00 | 37 | 1022.1 |
| 20260510182009 | 65 | 53 | 0.0 | 2.0 | 0.00 | 0.00 | 0.00 | 34 | 1022.3 |
| 20260510181508 | 65 | 44 | 1.0 | 2.0 | 0.00 | 0.00 | 0.00 | 31 | 1022.4 |
| 20260510181003 | 65 | 282 | 0.0 | 5.0 | 0.00 | 0.00 | 0.00 | 33 | 1022.5 |
| 20260510180501 | 65 | 38 | 1.0 | 1.0 | 0.00 | 0.00 | 0.00 | 31 | 1022.3 |
| 20260510175957 | 65 | 51 | 1.0 | 2.0 | 0.00 | 0.00 | 0.00 | 33 | 1022.4 |
| 20260510175453 | 65 | 37 | 2.0 | 2.0 | 0.00 | 0.00 | 0.00 | 31 | 1022.4 |
| 20260510174948 | 65 | 82 | 1.0 | 6.0 | 0.00 | 0.00 | 0.00 | 33 | 1022.4 |
| 20260510174447 | 65 | 30 | 1.0 | 5.0 | 0.00 | 0.00 | 0.00 | 32 | 1022.1 |
| 20260510173944 | 65 | 42 | 1.0 | 3.0 | 0.00 | 0.00 | 0.00 | 31 | 1022.1 |
| 20260510173439 | 66 | 155 | 3.0 | 3.0 | 0.00 | 0.00 | 0.00 | 32 | 1022.2 |
| 20260510172936 | 66 | 26 | 2.0 | 3.0 | 0.00 | 0.00 | 0.00 | 32 | 1022.3 |
| 20260510172432 | 64 | 39 | 3.0 | 5.0 | 0.00 | 0.00 | 0.00 | 32 | 1022.6 |
| 20260510171928 | 65 | 329 | 4.0 | 7.0 | 0.00 | 0.00 | 0.00 | 32 | 1022.4 |
| 20260510171425 | 65 | 23 | 2.0 | 3.0 | 0.00 | 0.00 | 0.00 | 32 | 1022.2 |
| 20260510170922 | 66 | 142 | 2.0 | 3.0 | 0.00 | 0.00 | 0.00 | 32 | 1022.3 |
| 20260510170419 | 66 | 142 | 2.0 | 3.0 | 0.00 | 0.00 | 0.00 | 32 | 1022.1 |
| 20260510165914 | 65 | 58 | 3.0 | 6.0 | 0.00 | 0.00 | 0.00 | 32 | 1022.2 |
| 20260510165410 | 65 | 67 | 1.0 | 2.0 | 0.00 | 0.00 | 0.00 | 34 | 1021.9 |
| 20260510164908 | 65 | 116 | 0.0 | 3.0 | 0.00 | 0.00 | 0.00 | 37 | 1022.1 |
| 20260510164404 | 65 | 45 | 2.0 | 6.0 | 0.00 | 0.00 | 0.00 | 34 | 1021.9 |
| 20260510163859 | 64 | 48 | 1.0 | 3.0 | 0.00 | 0.00 | 0.00 | 34 | 1021.8 |
| 20260510163355 | 64 | 290 | 1.0 | 5.0 | 0.00 | 0.00 | 0.00 | 34 | 1021.9 |
| 20260510162849 | 63 | 14 | 3.0 | 3.0 | 0.00 | 0.00 | 0.00 | 35 | 1022.1 |
| 20260510162347 | 63 | 357 | 1.0 | 2.0 | 0.00 | 0.00 | 0.00 | 33 | 1021.9 |
| 20260510161842 | 62 | 38 | 1.0 | 5.0 | 0.00 | 0.00 | 0.00 | 33 | 1022.0 |
| 20260510161339 | 62 | 17 | 1.0 | 5.0 | 0.00 | 0.00 | 0.00 | 34 | 1022.1 |
| 20260510160836 | 62 | 293 | 4.0 | 5.0 | 0.00 | 0.00 | 0.00 | 35 | 1022.2 |
| 20260510160332 | 62 | 105 | 1.0 | 3.0 | 0.00 | 0.00 | 0.00 | 35 | 1022.2 |
| 20260510155826 | 62 | 26 | 3.0 | 5.0 | 0.00 | 0.00 | 0.00 | 35 | 1022.4 |
| 20260510155324 | 62 | 96 | 1.0 | 5.0 | 0.00 | 0.00 | 0.00 | 36 | 1022.3 |
| 20260510154820 | 62 | 106 | 1.0 | 8.0 | 0.00 | 0.00 | 0.00 | 34 | 1022.2 |
| 20260510154316 | 62 | 189 | 2.0 | 3.0 | 0.00 | 0.00 | 0.00 | 37 | 1022.0 |
| 20260510153810 | 62 | 138 | 1.0 | 3.0 | 0.00 | 0.00 | 0.00 | 37 | 1021.9 |
| 20260510153307 | 62 | 150 | 2.0 | 3.0 | 0.00 | 0.00 | 0.00 | 37 | 1022.0 |
| 20260510152803 | 62 | 8 | 2.0 | 5.0 | 0.00 | 0.00 | 0.00 | 37 | 1021.8 |
| 20260510152300 | 61 | 166 | 3.0 | 5.0 | 0.00 | 0.00 | 0.00 | 38 | 1021.9 |
| 20260510151756 | 61 | 357 | 3.0 | 5.0 | 0.00 | 0.00 | 0.00 | 38 | 1021.9 |
| 20260510151255 | 61 | 28 | 2.0 | 3.0 | 0.00 | 0.00 | 0.00 | 39 | 1022.0 |
| 20260510150750 | 60 | 114 | 0.0 | 2.0 | 0.00 | 0.00 | 0.00 | 41 | 1022.0 |
| 20260510150246 | 60 | 50 | 1.0 | 5.0 | 0.00 | 0.00 | 0.00 | 39 | 1021.8 |
| 20260510145742 | 60 | 57 | 1.0 | 3.0 | 0.00 | 0.00 | 0.00 | 42 | 1021.8 |
| 20260510145239 | 59 | 36 | 2.0 | 5.0 | 0.00 | 0.00 | 0.00 | 42 | 1021.8 |
| 20260510144735 | 60 | 41 | 2.0 | 2.0 | 0.00 | 0.00 | 0.00 | 43 | 1021.9 |
| 20260510144232 | 59 | 31 | 1.0 | 3.0 | 0.00 | 0.00 | 0.00 | 43 | 1021.9 |
| 20260510143726 | 58 | 54 | 1.0 | 2.0 | 0.00 | 0.00 | 0.00 | 44 | 1021.9 |
| 20260510143223 | 58 | 40 | 2.0 | 3.0 | 0.00 | 0.00 | 0.00 | 44 | 1021.9 |
| 20260510142719 | 58 | 81 | 2.0 | 2.0 | 0.00 | 0.00 | 0.00 | 47 | 1021.9 |
| 20260510142216 | 57 | 38 | 2.0 | 5.0 | 0.00 | 0.00 | 0.00 | 44 | 1021.7 |
| 20260510141714 | 58 | 63 | 1.0 | 2.0 | 0.00 | 0.00 | 0.00 | 46 | 1021.9 |
| 20260510141212 | 57 | 39 | 2.0 | 2.0 | 0.00 | 0.00 | 0.00 | 46 | 1021.7 |
| 20260510140708 | 56 | 35 | 1.0 | 3.0 | 0.00 | 0.00 | 0.00 | 47 | 1021.9 |
| 20260510140208 | 56 | 54 | 0.0 | 2.0 | 0.00 | 0.00 | 0.00 | 47 | 1021.6 |
| 20260510135703 | 56 | 55 | 2.0 | 2.0 | 0.00 | 0.00 | 0.00 | 48 | 1021.6 |
| 20260510135159 | 56 | 66 | 0.0 | 1.0 | 0.00 | 0.00 | 0.00 | 48 | 1021.6 |
| 20260510134656 | 56 | 66 | 0.0 | 1.0 | 0.00 | 0.00 | 0.00 | 47 | 1021.8 |
| 20260510134153 | 56 | 40 | 0.0 | 1.0 | 0.00 | 0.00 | 0.00 | 46 | 1021.8 |
| 20260510133649 | 56 | 83 | 1.0 | 1.0 | 0.00 | 0.00 | 0.00 | 46 | 1021.5 |
| 20260510133145 | 56 | 48 | 0.0 | 1.0 | 0.00 | 0.00 | 0.00 | 47 | 1021.3 |
| 20260510132641 | 56 | 59 | 1.0 | 3.0 | 0.00 | 0.00 | 0.00 | 47 | 1021.7 |
| 20260510132139 | 56 | 47 | 0.0 | 1.0 | 0.00 | 0.00 | 0.00 | 49 | 1021.6 |
| 20260510131636 | 55 | 55 | 0.0 | 2.0 | 0.00 | 0.00 | 0.00 | 49 | 1021.4 |
| 20260510131134 | 56 | 72 | 0.0 | 1.0 | 0.00 | 0.00 | 0.00 | 48 | 1021.2 |
| 20260510130630 | 56 | 52 | 1.0 | 2.0 | 0.00 | 0.00 | 0.00 | 49 | 1021.3 |
| 20260510130127 | 56 | 53 | 0.0 | 2.0 | 0.00 | 0.00 | 0.00 | 48 | 1021.4 |
| 20260510125623 | 56 | 50 | 0.0 | 1.0 | 0.00 | 0.00 | 0.00 | 47 | 1021.1 |
| 20260510125120 | 55 | 49 | 1.0 | 2.0 | 0.00 | 0.00 | 0.00 | 47 | 1021.3 |
| 20260510124617 | 55 | 91 | 0.0 | 1.0 | 0.00 | 0.00 | 0.00 | 47 | 1020.9 |
| 20260510124113 | 55 | 69 | 0.0 | 1.0 | 0.00 | 0.00 | 0.00 | 46 | 1020.6 |
| 20260510123609 | 56 | 69 | 0.0 | 2.0 | 0.00 | 0.00 | 0.00 | 46 | 1020.5 |
| 20260510123105 | 56 | 70 | 1.0 | 2.0 | 0.00 | 0.00 | 0.00 | 45 | 1020.2 |
| 20260510122601 | 56 | 47 | 1.0 | 3.0 | 0.00 | 0.00 | 0.00 | 45 | 1020.1 |
| 20260510122057 | 57 | 61 | 1.0 | 1.0 | 0.00 | 0.00 | 0.00 | 45 | 1020.2 |
| 20260510121554 | 56 | 52 | 1.0 | 1.0 | 0.00 | 0.00 | 0.00 | 46 | 1019.9 |
| 20260510121052 | 56 | 67 | 0.0 | 1.0 | 0.00 | 0.00 | 0.00 | 47 | 1020.0 |
| 20260510120550 | 56 | 47 | 2.0 | 3.0 | 0.00 | 0.00 | 0.00 | 45 | 1019.5 |
| 20260510120044 | 56 | 51 | 1.0 | 1.0 | 0.00 | 0.00 | 0.00 | 45 | 1019.3 |
| 20260510115541 | 57 | 72 | 0.0 | 2.0 | 0.00 | 0.00 | 0.00 | 47 | 1019.3 |
| 20260510115038 | 56 | 46 | 0.0 | 2.0 | 0.00 | 0.00 | 0.00 | 45 | 1019.1 |
| 20260510114534 | 57 | 41 | 1.0 | 2.0 | 0.00 | 0.00 | 0.00 | 45 | 1019.1 |
| 20260510114030 | 57 | 45 | 0.0 | 1.0 | 0.00 | 0.00 | 0.00 | 44 | 1019.3 |
| 20260510113526 | 57 | 49 | 2.0 | 3.0 | 0.00 | 0.00 | 0.00 | 44 | 1019.4 |
| 20260510113024 | 57 | 52 | 0.0 | 2.0 | 0.00 | 0.00 | 0.00 | 46 | 1019.3 |
| 20260510112520 | 57 | 54 | 0.0 | 0.0 | 0.00 | 0.00 | 0.00 | 44 | 1019.1 |
| 20260510112016 | 58 | 59 | 0.0 | 0.0 | 0.00 | 0.00 | 0.00 | 45 | 1019.1 |
| 20260510111513 | 57 | 53 | 0.0 | 2.0 | 0.00 | 0.00 | 0.00 | 44 | 1019.1 |
| 20260510111009 | 57 | 65 | 0.0 | 1.0 | 0.00 | 0.00 | 0.00 | 47 | 1019.0 |
| 20260510110505 | 57 | 65 | 1.0 | 1.0 | 0.00 | 0.00 | 0.00 | 46 | 1019.0 |
| 20260510110002 | 57 | 93 | 1.0 | 2.0 | 0.00 | 0.00 | 0.00 | 45 | 1018.9 |
| 20260510105456 | 57 | 52 | 0.0 | 0.0 | 0.00 | 0.00 | 0.00 | 46 | 1018.9 |
| 20260510104952 | 57 | 41 | 0.0 | 1.0 | 0.00 | 0.00 | 0.00 | 45 | 1018.6 |
| 20260510104449 | 57 | 52 | 0.0 | 1.0 | 0.00 | 0.00 | 0.00 | 44 | 1018.7 |
| 20260510103945 | 57 | 54 | 0.0 | 1.0 | 0.00 | 0.00 | 0.00 | 46 | 1018.8 |
| 20260510103443 | 57 | 54 | 1.0 | 1.0 | 0.00 | 0.00 | 0.00 | 45 | 1018.7 |
| 20260510102938 | 57 | 44 | 0.0 | 2.0 | 0.00 | 0.00 | 0.00 | 45 | 1018.5 |
| 20260510102434 | 57 | 41 | 1.0 | 3.0 | 0.00 | 0.00 | 0.00 | 44 | 1018.3 |
| 20260510101931 | 57 | 47 | 0.0 | 2.0 | 0.00 | 0.00 | 0.00 | 45 | 1018.3 |
| 20260510101429 | 58 | 60 | 1.0 | 2.0 | 0.00 | 0.00 | 0.00 | 45 | 1018.2 |
| 20260510100927 | 58 | 48 | 0.0 | 1.0 | 0.00 | 0.00 | 0.00 | 45 | 1018.2 |
| 20260510100423 | 58 | 58 | 1.0 | 2.0 | 0.00 | 0.00 | 0.00 | 45 | 1018.0 |
| 20260510095919 | 58 | 29 | 2.0 | 3.0 | 0.00 | 0.00 | 0.00 | 45 | 1017.8 |
| 20260510095415 | 58 | 78 | 0.0 | 3.0 | 0.00 | 0.00 | 0.00 | 46 | 1017.8 |
| 20260510094914 | 59 | 37 | 1.0 | 2.0 | 0.00 | 0.00 | 0.00 | 46 | 1017.4 |
| 20260510094409 | 59 | 31 | 1.0 | 2.0 | 0.00 | 0.00 | 0.00 | 46 | 1017.3 |
| 20260510093906 | 59 | 52 | 1.0 | 1.0 | 0.00 | 0.00 | 0.00 | 45 | 1017.3 |
| 20260510093401 | 59 | 50 | 0.0 | 2.0 | 0.00 | 0.00 | 0.00 | 45 | 1017.6 |
| 20260510092858 | 59 | 39 | 1.0 | 2.0 | 0.00 | 0.00 | 0.00 | 45 | 1017.3 |
| 20260510092355 | 59 | 100 | 1.0 | 2.0 | 0.00 | 0.00 | 0.00 | 46 | 1017.4 |
| 20260510091850 | 59 | 80 | 1.0 | 2.0 | 0.00 | 0.00 | 0.00 | 47 | 1017.4 |
| 20260510091347 | 59 | 41 | 1.0 | 2.0 | 0.00 | 0.00 | 0.00 | 46 | 1017.7 |
| 20260510090844 | 59 | 42 | 0.0 | 2.0 | 0.00 | 0.00 | 0.00 | 48 | 1017.6 |
| 20260510090340 | 59 | 18 | 1.0 | 2.0 | 0.00 | 0.00 | 0.00 | 50 | 1017.5 |
| 20260510085835 | 60 | 53 | 1.0 | 2.0 | 0.00 | 0.00 | 0.00 | 48 | 1016.9 |
| 20260510085330 | 60 | 45 | 0.0 | 5.0 | 0.00 | 0.00 | 0.00 | 47 | 1017.3 |
| 20260510084826 | 60 | 63 | 0.0 | 2.0 | 0.00 | 0.00 | 0.00 | 48 | 1017.4 |
| 20260510084324 | 60 | 49 | 1.0 | 2.0 | 0.00 | 0.00 | 0.00 | 50 | 1017.4 |
| 20260510083820 | 60 | 53 | 0.0 | 2.0 | 0.00 | 0.00 | 0.00 | 50 | 1017.1 |
| 20260510083317 | 61 | 50 | 0.0 | 2.0 | 0.00 | 0.00 | 0.00 | 51 | 1017.0 |
| 20260510082812 | 61 | 42 | 0.0 | 2.0 | 0.00 | 0.00 | 0.00 | 52 | 1017.0 |
| 20260510082310 | 61 | 127 | 1.0 | 2.0 | 0.00 | 0.00 | 0.00 | 53 | 1016.9 |
| 20260510081809 | 61 | 62 | 1.0 | 5.0 | 0.00 | 0.00 | 0.00 | 53 | 1016.6 |
| 20260510081305 | 61 | 66 | 0.0 | 1.0 | 0.00 | 0.00 | 0.00 | 55 | 1016.7 |
| 20260510080801 | 61 | 36 | 2.0 | 2.0 | 0.00 | 0.00 | 0.00 | 55 | 1016.9 |
| 20260510080255 | 61 | 42 | 1.0 | 2.0 | 0.00 | 0.00 | 0.00 | 56 | 1016.6 |
| 20260510075753 | 61 | 40 | 0.0 | 2.0 | 0.00 | 0.00 | 0.00 | 57 | 1016.6 |
| 20260510075250 | 61 | 31 | 0.0 | 3.0 | 0.00 | 0.00 | 0.00 | 57 | 1016.5 |
| 20260510074747 | 61 | 55 | 1.0 | 2.0 | 0.00 | 0.00 | 0.00 | 59 | 1016.7 |
| 20260510074244 | 61 | 61 | 0.0 | 2.0 | 0.00 | 0.00 | 0.00 | 59 | 1016.3 |
| 20260510073740 | 61 | 55 | 1.0 | 2.0 | 0.00 | 0.00 | 0.00 | 60 | 1016.2 |
| 20260510073236 | 61 | 50 | 0.0 | 0.0 | 0.00 | 0.00 | 0.00 | 61 | 1015.9 |
| 20260510072731 | 61 | 50 | 0.0 | 0.0 | 0.00 | 0.00 | 0.00 | 61 | 1016.0 |
| 20260510072228 | 61 | 49 | 1.0 | 1.0 | 0.00 | 0.00 | 0.00 | 61 | 1015.9 |
| 20260510071725 | 61 | 54 | 0.0 | 2.0 | 0.00 | 0.00 | 0.00 | 64 | 1015.7 |
| 20260510071222 | 61 | 56 | 0.0 | 1.0 | 0.00 | 0.00 | 0.00 | 65 | 1015.9 |
| 20260510070720 | 61 | 90 | 0.0 | 0.0 | 0.00 | 0.00 | 0.00 | 66 | 1015.7 |
| 20260510070217 | 60 | 107 | 0.0 | 0.0 | 0.00 | 0.00 | 0.00 | 68 | 1015.5 |
| 20260510065712 | 60 | 109 | 0.0 | 0.0 | 0.00 | 0.00 | 0.00 | 67 | 1015.3 |
| 20260510065209 | 60 | 109 | 0.0 | 0.0 | 0.00 | 0.00 | 0.00 | 69 | 1015.6 |
| 20260510064705 | 60 | 109 | 0.0 | 0.0 | 0.00 | 0.00 | 0.00 | 71 | 1015.2 |
| 20260510064203 | 60 | 109 | 0.0 | 0.0 | 0.00 | 0.00 | 0.00 | 72 | 1015.2 |
| 20260510063659 | 60 | 109 | 0.0 | 0.0 | 0.00 | 0.00 | 0.00 | 72 | 1015.2 |
| 20260510063155 | 60 | 109 | 0.0 | 0.0 | 0.00 | 0.00 | 0.00 | 71 | 1015.5 |
| 20260510062652 | 61 | 109 | 0.0 | 0.0 | 0.00 | 0.00 | 0.00 | 70 | 1015.3 |
| 20260510062148 | 61 | 109 | 0.0 | 0.0 | 0.00 | 0.00 | 0.00 | 69 | 1015.1 |
| 20260510061643 | 62 | 109 | 0.0 | 0.0 | 0.00 | 0.00 | 0.00 | 68 | 1015.2 |
| 20260510061141 | 61 | 109 | 0.0 | 0.0 | 0.00 | 0.00 | 0.00 | 66 | 1015.2 |
| 20260510060637 | 62 | 109 | 0.0 | 0.0 | 0.00 | 0.00 | 0.00 | 67 | 1015.4 |
| 20260510060134 | 62 | 109 | 0.0 | 0.0 | 0.00 | 0.00 | 0.00 | 66 | 1015.1 |
| 20260510055630 | 62 | 109 | 0.0 | 0.0 | 0.00 | 0.00 | 0.00 | 66 | 1015.1 |
| 20260510055129 | 62 | 109 | 0.0 | 0.0 | 0.00 | 0.00 | 0.00 | 67 | 1014.8 |
| 20260510054624 | 62 | 109 | 0.0 | 0.0 | 0.00 | 0.00 | 0.00 | 68 | 1015.2 |
| 20260510054119 | 63 | 109 | 0.0 | 1.0 | 0.00 | 0.00 | 0.00 | 65 | 1014.9 |
| 20260510053619 | 65 | 131 | 0.0 | 1.0 | 0.00 | 0.00 | 0.00 | 60 | 1014.8 |
| 20260510053116 | 66 | 146 | 2.0 | 3.0 | 0.00 | 0.00 | 0.00 | 55 | 1014.3 |
| 20260510052611 | 66 | 76 | 1.0 | 1.0 | 0.00 | 0.00 | 0.00 | 54 | 1014.8 |
| 20260510052108 | 66 | 299 | 0.0 | 2.0 | 0.00 | 0.00 | 0.00 | 54 | 1014.2 |
| 20260510051603 | 66 | 39 | 1.0 | 2.0 | 0.00 | 0.00 | 0.00 | 53 | 1014.1 |
| 20260510051101 | 66 | 44 | 1.0 | 2.0 | 0.00 | 0.00 | 0.00 | 53 | 1013.9 |
| 20260510050558 | 66 | 31 | 1.0 | 2.0 | 0.00 | 0.00 | 0.00 | 52 | 1013.6 |
| 20260510050055 | 67 | 37 | 0.0 | 1.0 | 0.00 | 0.00 | 0.00 | 50 | 1014.2 |
| 20260510045552 | 67 | 53 | 1.0 | 2.0 | 0.00 | 0.00 | 0.00 | 49 | 1013.7 |
| 20260510045048 | 67 | 77 | 0.0 | 1.0 | 0.00 | 0.00 | 0.00 | 49 | 1013.9 |
| 20260510044545 | 67 | 86 | 0.0 | 1.0 | 0.00 | 0.00 | 0.00 | 48 | 1013.6 |
| 20260510044042 | 67 | 99 | 0.0 | 2.0 | 0.00 | 0.00 | 0.00 | 49 | 1013.6 |
| 20260510043537 | 67 | 61 | 0.0 | 2.0 | 0.00 | 0.00 | 0.00 | 49 | 1013.4 |
| 20260510043033 | 67 | 54 | 0.0 | 3.0 | 0.00 | 0.00 | 0.00 | 50 | 1013.3 |
| 20260510042528 | 67 | 69 | 0.0 | 0.0 | 0.00 | 0.00 | 0.00 | 51 | 1013.4 |
| 20260510042028 | 68 | 69 | 0.0 | 0.0 | 0.00 | 0.00 | 0.00 | 50 | 1013.4 |
| 20260510041526 | 68 | 65 | 0.0 | 0.0 | 0.00 | 0.00 | 0.00 | 49 | 1013.5 |
| 20260510041023 | 68 | 56 | 1.0 | 1.0 | 0.00 | 0.00 | 0.00 | 49 | 1013.3 |
| 20260510040519 | 68 | 56 | 0.0 | 0.0 | 0.00 | 0.00 | 0.00 | 49 | 1013.4 |
| 20260510040015 | 68 | 29 | 1.0 | 2.0 | 0.00 | 0.00 | 0.00 | 49 | 1013.1 |
| 20260510035512 | 68 | 116 | 1.0 | 2.0 | 0.00 | 0.00 | 0.00 | 54 | 1013.1 |
| 20260510035011 | 69 | 50 | 1.0 | 2.0 | 0.00 | 0.00 | 0.00 | 52 | 1013.4 |
| 20260510034510 | 68 | 33 | 0.0 | 2.0 | 0.00 | 0.00 | 0.00 | 53 | 1013.6 |
| 20260510034006 | 67 | 262 | 0.0 | 3.0 | 0.00 | 0.00 | 0.00 | 58 | 1013.7 |
| 20260510033502 | 66 | 63 | 1.0 | 1.0 | 0.00 | 0.00 | 0.00 | 62 | 1013.5 |
| 20260510033000 | 67 | 62 | 0.0 | 0.0 | 0.00 | 0.00 | 0.00 | 60 | 1013.2 |
| 20260510032456 | 67 | 47 | 0.0 | 0.0 | 0.00 | 0.00 | 0.00 | 58 | 1013.1 |
| 20260510031951 | 67 | 47 | 0.0 | 0.0 | 0.00 | 0.00 | 0.00 | 57 | 1012.9 |
| 20260510031447 | 68 | 47 | 0.0 | 0.0 | 0.00 | 0.00 | 0.00 | 57 | 1012.6 |
| 20260510030943 | 68 | 47 | 0.0 | 0.0 | 0.00 | 0.00 | 0.00 | 57 | 1012.2 |
| 20260510030438 | 68 | 47 | 0.0 | 0.0 | 0.00 | 0.00 | 0.00 | 55 | 1012.0 |
| 20260510025936 | 68 | 47 | 0.0 | 0.0 | 0.00 | 0.00 | 0.00 | 55 | 1012.4 |
| 20260510025433 | 68 | 47 | 0.0 | 0.0 | 0.00 | 0.00 | 0.00 | 54 | 1012.0 |
| 20260510024930 | 69 | 47 | 0.0 | 0.0 | 0.00 | 0.00 | 0.00 | 54 | 1011.7 |
| 20260510024427 | 69 | 47 | 0.0 | 0.0 | 0.00 | 0.00 | 0.00 | 53 | 1011.9 |
| 20260510023923 | 69 | 47 | 0.0 | 0.0 | 0.00 | 0.00 | 0.00 | 53 | 1011.7 |
| 20260510023419 | 69 | 47 | 0.0 | 0.0 | 0.00 | 0.00 | 0.00 | 52 | 1011.4 |
| 20260510022917 | 70 | 47 | 0.0 | 0.0 | 0.00 | 0.00 | 0.00 | 50 | 1011.1 |
| 20260510022415 | 70 | 47 | 0.0 | 1.0 | 0.00 | 0.00 | 0.00 | 51 | 1011.0 |
| 20260510021914 | 71 | 47 | 0.0 | 0.0 | 0.00 | 0.00 | 0.00 | 49 | 1011.1 |
| 20260510021413 | 71 | 47 | 0.0 | 0.0 | 0.00 | 0.00 | 0.00 | 49 | 1011.0 |
| 20260510020909 | 71 | 47 | 0.0 | 0.0 | 0.00 | 0.00 | 0.00 | 48 | 1010.9 |
| 20260510020404 | 71 | 47 | 0.0 | 0.0 | 0.00 | 0.00 | 0.00 | 48 | 1010.7 |
| 20260510015900 | 71 | 43 | 0.0 | 0.0 | 0.00 | 0.00 | 0.00 | 48 | 1010.7 |
| 20260510015356 | 72 | 43 | 0.0 | 0.0 | 0.00 | 0.00 | 0.00 | 47 | 1010.8 |
| 20260510014851 | 72 | 43 | 0.0 | 0.0 | 0.00 | 0.00 | 0.00 | 46 | 1010.7 |
| 20260510014349 | 73 | 39 | 0.0 | 1.0 | 0.00 | 0.00 | 0.00 | 46 | 1010.8 |
| 20260510013845 | 73 | 65 | 0.0 | 1.0 | 0.00 | 0.00 | 0.00 | 46 | 1010.6 |
| 20260510013341 | 73 | 294 | 2.0 | 3.0 | 0.00 | 0.00 | 0.00 | 44 | 1010.2 |
| 20260510012836 | 73 | 52 | 1.0 | 2.0 | 0.00 | 0.00 | 0.00 | 45 | 1010.2 |
| 20260510012335 | 73 | 342 | 2.0 | 3.0 | 0.00 | 0.00 | 0.00 | 44 | 1010.0 |
| 20260510011831 | 73 | 10 | 4.0 | 9.0 | 0.00 | 0.00 | 0.00 | 44 | 1010.0 |
| 20260510011326 | 73 | 58 | 3.0 | 6.0 | 0.00 | 0.00 | 0.00 | 44 | 1009.9 |
| 20260510010823 | 73 | 35 | 1.0 | 3.0 | 0.00 | 0.00 | 0.00 | 44 | 1010.1 |
| 20260510010320 | 74 | 109 | 0.0 | 0.0 | 0.00 | 0.00 | 0.00 | 45 | 1010.1 |
| 20260510005817 | 74 | 152 | 0.0 | 0.0 | 0.00 | 0.00 | 0.00 | 44 | 1009.9 |
| 20260510005313 | 75 | 61 | 0.0 | 1.0 | 0.00 | 0.00 | 0.00 | 44 | 1009.7 |
| 20260510004811 | 75 | 60 | 0.0 | 1.0 | 0.00 | 0.00 | 0.00 | 43 | 1009.6 |
| 20260510004308 | 75 | 51 | 2.0 | 5.0 | 0.00 | 0.00 | 0.00 | 42 | 1009.6 |
| 20260510003806 | 75 | 60 | 0.0 | 1.0 | 0.00 | 0.00 | 0.00 | 42 | 1009.5 |
| 20260510003303 | 75 | 57 | 0.0 | 5.0 | 0.00 | 0.00 | 0.00 | 42 | 1009.4 |
| 20260510002801 | 76 | 57 | 1.0 | 2.0 | 0.00 | 0.00 | 0.00 | 41 | 1009.2 |
| 20260510002259 | 76 | 28 | 2.0 | 7.0 | 0.00 | 0.00 | 0.00 | 40 | 1009.3 |
| 20260510001755 | 76 | 41 | 0.0 | 3.0 | 0.00 | 0.00 | 0.00 | 41 | 1009.3 |
| 20260510001253 | 76 | 91 | 1.0 | 1.0 | 0.00 | 0.00 | 0.00 | 42 | 1009.3 |
| 20260510000749 | 76 | 284 | 2.0 | 8.0 | 0.00 | 0.00 | 0.00 | 40 | 1009.1 |
| 20260510000248 | 77 | 12 | 2.0 | 5.0 | 0.00 | 0.00 | 0.00 | 40 | 1009.0 |
| 20260509235744 | 78 | 51 | 1.0 | 2.0 | 0.00 | 0.00 | 0.00 | 39 | 1009.0 |
| 20260509235240 | 78 | 292 | 3.0 | 6.0 | 0.00 | 0.00 | 0.00 | 37 | 1008.7 |
| 20260509234735 | 78 | 344 | 4.0 | 6.0 | 0.00 | 0.00 | 0.00 | 37 | 1008.9 |
| 20260509234233 | 78 | 334 | 4.0 | 5.0 | 0.00 | 0.00 | 0.00 | 37 | 1008.8 |
| 20260509233731 | 78 | 85 | 1.0 | 6.0 | 0.00 | 0.00 | 0.00 | 38 | 1008.8 |
| 20260509233228 | 77 | 318 | 3.0 | 5.0 | 0.00 | 0.00 | 0.00 | 38 | 1008.6 |
| 20260509232724 | 78 | 63 | 0.0 | 2.0 | 0.00 | 0.00 | 0.00 | 38 | 1008.9 |
| 20260509232222 | 78 | 34 | 3.0 | 6.0 | 0.00 | 0.00 | 0.00 | 38 | 1008.7 |
| 20260509231718 | 78 | 359 | 2.0 | 10.0 | 0.00 | 0.00 | 0.00 | 37 | 1008.8 |
| 20260509231215 | 79 | 33 | 5.0 | 8.0 | 0.00 | 0.00 | 0.00 | 36 | 1008.3 |
| 20260509230713 | 80 | 355 | 4.0 | 13.0 | 0.00 | 0.00 | 0.00 | 33 | 1008.4 |
| 20260509230209 | 81 | 293 | 7.0 | 9.0 | 0.00 | 0.00 | 0.00 | 30 | 1008.6 |
| 20260509225705 | 81 | 304 | 4.0 | 8.0 | 0.00 | 0.00 | 0.00 | 30 | 1008.3 |
| 20260509225200 | 81 | 207 | 5.0 | 9.0 | 0.00 | 0.00 | 0.00 | 30 | 1008.1 |
| 20260509224651 | 81 | 254 | 4.0 | 8.0 | 0.00 | 0.00 | 0.00 | 28 | 1008.0 |
| 20260509224148 | 81 | 128 | 8.0 | 11.0 | 0.00 | 0.00 | 0.00 | 30 | 1007.8 |
| 20260509223645 | 82 | 40 | 2.0 | 3.0 | 0.00 | 0.00 | 0.00 | 30 | 1008.2 |
| 20260509223142 | 82 | 37 | 1.0 | 2.0 | 0.00 | 0.00 | 0.00 | 29 | 1007.5 |
| 20260509222639 | 83 | 316 | 3.0 | 3.0 | 0.00 | 0.00 | 0.00 | 29 | 1007.5 |
| 20260509222134 | 83 | 211 | 6.0 | 13.0 | 0.00 | 0.00 | 0.00 | 27 | 1007.5 |
| 20260509221630 | 83 | 156 | 2.0 | 3.0 | 0.00 | 0.00 | 0.00 | 29 | 1007.7 |
| 20260509221126 | 83 | 7 | 5.0 | 6.0 | 0.00 | 0.00 | 0.00 | 28 | 1007.5 |
| 20260509220622 | 84 | 293 | 7.0 | 11.0 | 0.00 | 0.00 | 0.00 | 28 | 1007.4 |
| 20260509220119 | 83 | 320 | 2.0 | 8.0 | 0.00 | 0.00 | 0.00 | 29 | 1007.2 |
| 20260509215615 | 84 | 181 | 5.0 | 7.0 | 0.00 | 0.00 | 0.00 | 28 | 1007.3 |
| 20260509215112 | 85 | 146 | 2.0 | 3.0 | 0.00 | 0.00 | 0.00 | 28 | 1007.4 |
| 20260509214608 | 85 | 300 | 4.0 | 8.0 | 0.00 | 0.00 | 0.00 | 25 | 1007.4 |
| 20260509214105 | 85 | 358 | 3.0 | 14.0 | 0.00 | 0.00 | 0.00 | 27 | 1007.4 |
| 20260509213601 | 85 | 40 | 2.0 | 5.0 | 0.00 | 0.00 | 0.00 | 27 | 1007.3 |
| 20260509213058 | 84 | 1 | 2.0 | 8.0 | 0.00 | 0.00 | 0.00 | 28 | 1007.4 |
| 20260509212555 | 85 | 359 | 3.0 | 7.0 | 0.00 | 0.00 | 0.00 | 31 | 1007.5 |
| 20260509212052 | 86 | 155 | 3.0 | 6.0 | 0.00 | 0.00 | 0.00 | 31 | 1007.3 |
| 20260509211548 | 84 | 30 | 2.0 | 5.0 | 0.00 | 0.00 | 0.00 | 31 | 1007.3 |
| 20260509211045 | 84 | 223 | 3.0 | 5.0 | 0.00 | 0.00 | 0.00 | 32 | 1007.4 |
| 20260509210542 | 84 | 290 | 3.0 | 7.0 | 0.00 | 0.00 | 0.00 | 31 | 1007.7 |
| 20260509210038 | 84 | 191 | 3.0 | 8.0 | 0.00 | 0.00 | 0.00 | 33 | 1007.4 |
| 20260509205532 | 84 | 153 | 2.0 | 6.0 | 0.00 | 0.00 | 0.00 | 32 | 1007.3 |
| 20260509205028 | 84 | 139 | 1.0 | 3.0 | 0.00 | 0.00 | 0.00 | 33 | 1007.5 |
| 20260509204524 | 84 | 171 | 3.0 | 7.0 | 0.00 | 0.00 | 0.00 | 33 | 1007.7 |
| 20260509204021 | 84 | 29 | 1.0 | 7.0 | 0.00 | 0.00 | 0.00 | 33 | 1007.5 |
| 20260509203516 | 83 | 163 | 2.0 | 3.0 | 0.00 | 0.00 | 0.00 | 31 | 1007.9 |
| 20260509203015 | 84 | 143 | 3.0 | 7.0 | 0.00 | 0.00 | 0.00 | 32 | 1008.1 |
| 20260509202509 | 83 | 172 | 4.0 | 5.0 | 0.00 | 0.00 | 0.00 | 33 | 1007.9 |
| 20260509202005 | 83 | 126 | 2.0 | 5.0 | 0.00 | 0.00 | 0.00 | 33 | 1008.1 |
| 20260509201500 | 82 | 150 | 3.0 | 9.0 | 0.00 | 0.00 | 0.00 | 31 | 1008.0 |
| 20260509200958 | 83 | 288 | 3.0 | 10.0 | 0.00 | 0.00 | 0.00 | 31 | 1008.0 |
| 20260509200452 | 83 | 286 | 7.0 | 11.0 | 0.00 | 0.00 | 0.00 | 32 | 1008.2 |
| 20260509195949 | 83 | 335 | 5.0 | 6.0 | 0.00 | 0.00 | 0.00 | 33 | 1008.2 |
| 20260509195445 | 83 | 172 | 4.0 | 6.0 | 0.00 | 0.00 | 0.00 | 33 | 1008.2 |
| 20260509194944 | 83 | 144 | 2.0 | 6.0 | 0.00 | 0.00 | 0.00 | 34 | 1008.2 |
| 20260509194440 | 83 | 178 | 3.0 | 8.0 | 0.00 | 0.00 | 0.00 | 33 | 1008.4 |
| 20260509193937 | 83 | 332 | 2.0 | 14.0 | 0.00 | 0.00 | 0.00 | 33 | 1008.5 |
| 20260509193437 | 82 | 316 | 7.0 | 9.0 | 0.00 | 0.00 | 0.00 | 33 | 1008.4 |
| 20260509192933 | 81 | 264 | 2.0 | 6.0 | 0.00 | 0.00 | 0.00 | 32 | 1008.4 |
| 20260509192430 | 82 | 331 | 2.0 | 5.0 | 0.00 | 0.00 | 0.00 | 33 | 1008.5 |
| 20260509191925 | 82 | 287 | 4.0 | 14.0 | 0.00 | 0.00 | 0.00 | 33 | 1008.7 |
| 20260509191420 | 81 | 359 | 3.0 | 8.0 | 0.00 | 0.00 | 0.00 | 36 | 1008.6 |
| 20260509190917 | 81 | 26 | 2.0 | 16.0 | 0.00 | 0.00 | 0.00 | 35 | 1008.4 |
| 20260509190414 | 81 | 125 | 3.0 | 7.0 | 0.00 | 0.00 | 0.00 | 36 | 1008.7 |
| 20260509185912 | 81 | 194 | 2.0 | 9.0 | 0.00 | 0.00 | 0.00 | 34 | 1008.7 |